Vorticity
nan nan nan nan nan nan nan nan nan nan nan nan nan nan nan nan nan nan nan nan nan nan nan nan nan nan nan nan nan nan nan nan nan nan nan nan nan nan nan nan nan nan nan
nan 15 12 9 9 8 8 9 11 10 9 9 8 8 8 9 10 9 8 8 7 8 8 8 8 8 8 10 9 8 9 9 8 9 8 10 9 9 9 8 11 11 nan
nan 18 17 11 11 10 10 10 11 9 9 10 9 9 9 9 9 9 10 9 8 9 9 8 8 8 8 7 7 8 9 9 8 9 9 9 9 8 10 11 9 10 nan
nan 13 12 11 13 14 16 13 10 10 9 8 8 8 9 10 10 10 9 9 9 9 9 8 10 9 7 7 9 8 7 8 10 9 9 10 9 9 10 8 8 10 nan
nan 8 9 9 10 14 14 16 16 13 10 9 9 9 9 9 9 9 9 10 9 9 9 10 10 10 9 6 5 8 9 8 7 9 9 9 7 9 10 10 9 8 nan
nan 7 7 9 10 11 9 12 14 15 17 13 11 10 8 10 11 8 7 9 10 10 9 10 10 9 10 11 8 9 7 4 6 9 8 8 9 9 9 8 8 8 nan
nan 9 10 11 10 7 9 10 9 11 11 13 15 13 12 11 11 9 8 9 11 10 10 9 10 12 11 11 13 12 9 10 8 7 7 5 8 8 7 8 10 9 nan
nan 11 7 6 9 11 11 6 8 10 10 9 10 9 12 11 12 14 13 10 10 10 10 10 10 9 10 8 10 10 11 12 13 7 6 6 6 8 8 9 9 10 nan
nan 9 10 11 10 10 8 9 8 8 9 10 9 8 9 10 11 16 19 16 11 11 11 11 9 9 12 11 8 9 8 9 13 12 11 11 8 6 4 10 9 7 nan
nan 9 9 11 11 10 8 11 11 10 10 9 10 11 13 11 12 19 19 15 13 14 13 14 14 10 7 14 16 14 10 10 9 12 13 16 14 14 13 4 5 8 nan
nan 9 10 10 11 11 13 12 11 11 12 14 14 14 14 11 7 7 14 16 12 11 11 12 13 8 7 11 14 11 7 7 13 13 12 12 13 13 13 13 11 8 nan
nan 10 9 10 11 10 12 12 12 13 13 13 16 15 7 7 8 5 6 7 8 10 10 9 3 2 6 11 12 11 9 10 12 11 11 10 10 10 10 13 13 8 nan
nan 9 10 10 10 10 10 12 12 12 12 11 9 9 10 10 10 10 5 6 10 12 9 7 7 10 11 14 13 11 16 15 10 10 8 9 10 11 11 11 12 12 nan
nan 9 10 10 10 11 11 10 10 10 9 9 9 9 12 12 10 11 12 9 10 11 10 13 15 15 16 11 13 17 14 11 10 8 9 10 11 12 12 12 10 11 nan
nan 9 11 11 11 12 11 9 11 10 8 8 10 10 8 9 8 12 12 12 13 11 13 12 11 13 14 14 12 11 11 12 12 12 12 12 11 11 11 12 12 12 nan
nan 11 12 11 10 10 10 9 8 7 10 14 13 8 10 8 3 7 8 16 22 17 13 9 9 10 9 9 10 11 11 10 10 11 13 12 11 10 11 11 12 11 nan
nan 13 11 10 11 11 11 9 9 9 7 7 8 11 14 8 4 7 11 14 20 18 11 10 10 10 11 11 11 11 11 12 11 11 11 10 12 13 13 11 12 11 nan
nan 12 13 11 11 12 11 11 10 9 10 10 8 7 5 7 9 11 14 17 15 13 9 8 10 11 11 10 12 12 13 13 13 14 15 13 13 11 11 12 10 8 nan
nan 13 12 11 10 10 11 10 10 10 10 9 10 10 9 9 12 12 13 13 9 9 9 9 11 12 13 14 13 11 11 12 11 13 13 13 16 16 13 10 11 11 nan
nan 10 12 11 10 10 10 9 9 10 11 11 10 8 5 9 13 13 12 11 11 11 10 10 10 9 8 9 12 13 12 10 9 9 9 10 11 12 13 14 15 14 nan
nan 6 7 8 10 10 9 10 10 9 10 10 9 4 7 16 12 10 10 11 10 10 10 10 11 10 11 10 10 9 10 9 8 9 9 8 9 10 10 11 11 13 nan
nan 9 7 9 8 7 10 10 10 11 9 8 9 6 13 16 10 10 10 10 11 11 11 10 10 11 11 12 13 11 9 8 9 10 8 8 9 9 10 9 10 11 nan
nan 10 9 9 10 8 8 9 10 10 8 9 10 11 12 10 10 10 10 11 12 11 11 11 11 10 10 10 11 10 9 9 10 9 9 9 10 9 10 9 10 11 nan
nan 10 10 9 10 11 10 9 10 9 9 8 9 11 11 12 10 11 11 11 11 12 12 12 11 10 10 9 7 6 8 10 9 7 10 11 8 9 11 11 11 10 nan
nan 10 10 10 10 11 9 10 10 11 9 8 11 12 11 11 11 12 13 11 10 11 11 14 12 9 8 13 13 13 15 12 8 7 10 12 12 12 11 10 8 12 nan
nan nan nan nan nan nan nan nan nan nan nan nan nan nan nan nan nan nan nan nan nan nan nan nan nan nan nan nan nan nan nan nan nan nan nan nan nan nan nan nan nan nan nan
CAPE
802 746 764 1107 1072 969 1117 1148 838 410 397 425 390 623 613 1045 1203 985 774 788 966 1018 842 985 974 772 883 763 1259 874 882 1012 795 742 1462 1214 993 947 1207 821 808 1486 2402
218 507 895 1044 1216 1199 1143 1274 1153 599 282 167 174 79 67 473 947 1087 1004 1252 916 875 979 762 1124 908 795 1148 1381 760 1265 811 1211 1272 808 987 1087 1018 539 737 1056 1538 1827
73 146 583 582 783 1232 1507 1622 1360 700 369 336 118 0 0 16 552 1232 1060 900 1034 1108 853 721 1021 960 891 811 1040 845 1015 1006 1237 1311 1086 954 918 413 928 821 1042 853 783
65 14 5 178 250 436 912 1257 1031 1210 704 556 507 331 406 720 904 965 1243 849 867 1008 1198 1116 1191 1160 932 674 808 924 765 883 863 867 765 795 691 790 726 910 1216 702 999
32 37 29 140 148 314 745 920 1430 1079 1128 1154 1115 1235 1170 1204 1212 1209 1424 1515 1199 991 1223 1401 1350 1501 1568 1383 1319 1270 928 871 817 858 1076 991 1125 1114 1068 966 1156 887 630
25 1 10 35 81 96 83 100 244 511 903 1087 1302 1175 1105 1479 1870 1420 1167 1270 1457 1395 1257 1096 1062 1312 1334 1437 1441 1084 1146 1177 1050 1048 1030 1087 936 825 707 1118 840 720 431
1 2 2 16 9 9 10 35 67 76 165 478 649 903 1176 1225 1310 1092 590 148 488 777 1154 1200 1135 1446 1483 1471 1522 1315 230 207 943 900 794 457 401 274 363 262 183 334 371
1 1 1 1 1 1 3 0 23 10 42 90 221 305 487 944 1182 909 643 83 113 179 525 1045 1299 1401 1263 1216 1156 1128 1180 1026 354 18 127 438 255 361 77 277 147 206 354
0 0 0 1 0 0 0 5 4 0 0 17 117 114 226 439 468 76 1 201 283 450 403 429 566 785 1102 1372 710 986 948 934 1419 1222 410 349 307 259 115 160 347 433 749
0 0 0 0 0 0 0 0 0 0 0 1 0 53 52 458 1 1 1 26 308 530 782 796 583 271 293 0 42 675 857 769 615 671 801 223 12 2 0 0 365 492 486
0 0 0 0 0 0 0 0 0 0 0 0 0 1 4 0 0 0 0 0 0 2 3 169 242 0 1 0 1 0 0 42 0 14 203 488 772 608 321 22 20 346 541
0 0 0 0 0 0 0 0 0 0 0 0 0 2 1 0 0 0 0 0 0 0 0 0 0 0 0 0 0 0 0 0 0 0 0 99 342 516 728 623 314 153 359
0 0 0 0 0 0 0 0 0 0 0 0 0 0 0 0 0 1 0 0 0 0 0 0 0 0 0 0 0 0 0 0 0 0 0 0 79 238 372 505 420 536 469
0 0 0 0 0 0 0 0 0 0 0 0 0 0 0 0 0 0 0 0 0 0 0 0 0 0 0 0 0 0 0 0 0 2 140 300 232 123 150 248 286 339 358
0 0 0 0 0 0 0 0 0 0 0 0 0 0 0 0 0 0 0 0 0 0 0 0 0 0 0 0 0 0 0 83 295 117 50 109 71 89 165 183 236 334 366
0 0 0 0 0 0 0 0 0 0 0 0 0 0 0 0 0 0 0 0 0 0 0 0 0 0 0 0 0 0 0 0 0 8 135 93 141 222 316 358 235 400 527
0 0 0 0 0 0 0 0 0 0 0 0 0 0 0 0 0 0 0 0 0 0 0 0 0 0 0 0 0 0 0 0 0 0 56 81 80 195 450 473 520 567 489
0 0 0 0 0 0 0 0 0 0 0 0 0 0 0 0 0 0 0 0 0 0 0 0 0 0 0 0 1 9 18 14 46 94 85 5 1 48 9 0 15 24 0
0 0 0 0 0 0 0 0 0 0 0 0 0 0 0 0 0 0 0 0 0 0 0 0 0 0 0 0 0 0 23 33 18 18 17 30 88 72 6 0 0 0 0
0 0 0 0 0 0 0 0 0 0 0 0 0 0 0 0 0 0 0 0 0 0 0 0 1 7 5 10 21 15 11 1 3 6 5 9 12 16 14 15 1 0 0
0 0 0 0 0 0 0 0 0 0 0 0 0 0 0 0 0 0 0 0 0 0 2 3 2 2 0 0 11 6 0 1 0 0 2 3 1 3 6 13 23 19 145
0 0 0 0 0 0 0 0 0 0 0 0 0 0 1 0 1 1 1 1 1 1 1 6 11 13 25 14 12 1 0 1 1 1 0 3 1 1 3 7 15 18 17
0 0 0 0 0 0 0 0 0 0 0 0 0 1 2 1 1 4 0 1 2 3 8 12 8 8 1 23 29 15 2 0 2 3 6 10 11 0 5 6 1 9 15
0 0 0 0 0 0 0 0 0 0 0 0 1 0 0 1 6 4 3 0 2 10 15 15 10 12 2 0 4 15 16 5 1 4 5 6 6 0 8 7 9 13 10
0 0 0 0 0 0 0 0 0 0 0 0 1 2 4 6 9 10 8 4 7 6 10 17 21 19 18 8 0 0 3 0 0 0 0 4 0 2 5 4 2 3 7
0 0 0 0 0 0 0 0 0 0 0 0 1 2 0 1 7 8 9 9 9 12 14 9 14 18 20 22 16 5 0 0 0 0 0 1 2 0 4 3 2 3 4